contact:dominique.lefevre@mio.osupytheas.fr, maurice.libes@osupytheas.fr, didier.mallarino@osupytheas.fr
Project:EMSO http://www.emso-fr.org/EMSO-France
Depth: 2436.0 m
Title:EMSO Ligure Ouest : Data MII capteur MICROCAT
DateTime_Computer,Latitude,Longitude,Temperature,Conductivity,Pressure,DateTime_Instrument
DateTime_Computer,Latitude,Longitude,degC,S m-1,dbar,DateTime_Instrument
2021-06-11T00:01:10Z,42.805,6.029,13.2983,4.59998,2470.343,2021-6-11T02:02:23Z
2021-06-11T00:04:13Z,42.805,6.029,13.2988,4.59998,2470.366,2021-6-11T02:05:26Z
2021-06-11T00:07:16Z,42.805,6.029,13.2986,4.59994,2470.343,2021-6-11T02:08:29Z
2021-06-11T00:10:19Z,42.805,6.029,13.2988,4.59994,2470.366,2021-6-11T02:11:32Z
2021-06-11T00:13:22Z,42.805,6.029,13.2985,4.59993,2470.343,2021-6-11T02:14:35Z
2021-06-11T00:16:25Z,42.805,6.029,13.2983,4.59999,2470.366,2021-6-11T02:17:38Z
2021-06-11T00:19:28Z,42.805,6.029,13.2983,4.59999,2470.343,2021-6-11T02:20:41Z
2021-06-11T00:22:31Z,42.805,6.029,13.2988,4.60000,2470.343,2021-6-11T02:23:45Z
2021-06-11T00:25:35Z,42.805,6.029,13.2986,4.59996,2470.334,2021-6-11T02:26:48Z
2021-06-11T00:28:38Z,42.805,6.029,13.2986,4.59994,2470.38,2021-6-11T02:29:51Z
2021-06-11T00:31:41Z,42.805,6.029,13.2984,4.59994,2470.357,2021-6-11T02:32:54Z
2021-06-11T00:34:44Z,42.805,6.029,13.2984,4.59992,2470.38,2021-6-11T02:35:57Z
2021-06-11T00:37:47Z,42.805,6.029,13.2987,4.59993,2470.343,2021-6-11T02:39:00Z
2021-06-11T00:40:50Z,42.805,6.029,13.2984,4.59993,2470.357,2021-6-11T02:42:03Z
2021-06-11T00:43:53Z,42.805,6.029,13.2984,4.59994,2470.334,2021-6-11T02:45:07Z
2021-06-11T00:46:56Z,42.805,6.029,13.2985,4.59996,2470.343,2021-6-11T02:48:10Z
2021-06-11T00:50:00Z,42.805,6.029,13.2986,4.59994,2470.343,2021-6-11T02:51:13Z
2021-06-11T00:53:03Z,42.805,6.029,13.2986,4.59991,2470.343,2021-6-11T02:54:16Z
2021-06-11T00:56:06Z,42.805,6.029,13.2983,4.59992,2470.32,2021-6-11T02:57:19Z
2021-06-11T00:59:09Z,42.805,6.029,13.2985,4.59997,2470.32,2021-6-11T03:00:22Z
2021-06-11T01:02:12Z,42.805,6.029,13.2983,4.59994,2470.334,2021-6-11T03:03:25Z
2021-06-11T01:05:15Z,42.805,6.029,13.2983,4.59994,2470.297,2021-6-11T03:06:28Z
2021-06-11T01:08:18Z,42.805,6.029,13.2983,4.59996,2470.32,2021-6-11T03:09:31Z
2021-06-11T01:11:21Z,42.805,6.029,13.2986,4.59993,2470.334,2021-6-11T03:12:35Z
2021-06-11T01:14:25Z,42.805,6.029,13.2982,4.59994,2470.366,2021-6-11T03:15:38Z
2021-06-11T01:17:28Z,42.805,6.029,13.2980,4.59992,2470.334,2021-6-11T03:18:41Z
2021-06-11T01:20:31Z,42.805,6.029,13.2983,4.59993,2470.297,2021-6-11T03:21:44Z
2021-06-11T01:23:34Z,42.805,6.029,13.2987,4.59994,2470.31,2021-6-11T03:24:47Z
2021-06-11T01:26:37Z,42.805,6.029,13.2985,4.59993,2470.334,2021-6-11T03:27:50Z
2021-06-11T01:29:40Z,42.805,6.029,13.2986,4.59993,2470.31,2021-6-11T03:30:53Z
2021-06-11T01:32:43Z,42.805,6.029,13.2984,4.59998,2470.334,2021-6-11T03:33:56Z
2021-06-11T01:35:46Z,42.805,6.029,13.2980,4.59993,2470.32,2021-6-11T03:37:00Z
2021-06-11T01:38:50Z,42.805,6.029,13.2986,4.59996,2470.357,2021-6-11T03:40:03Z
2021-06-11T01:41:53Z,42.805,6.029,13.2984,4.59996,2470.31,2021-6-11T03:43:06Z
2021-06-11T01:44:56Z,42.805,6.029,13.2985,4.59993,2470.297,2021-6-11T03:46:09Z
2021-06-11T01:47:59Z,42.805,6.029,13.2987,4.59994,2470.287,2021-6-11T03:49:12Z
2021-06-11T01:51:02Z,42.805,6.029,13.2988,4.59994,2470.297,2021-6-11T03:52:15Z
2021-06-11T01:54:05Z,42.805,6.029,13.2986,4.59991,2470.297,2021-6-11T03:55:18Z
2021-06-11T01:57:08Z,42.805,6.029,13.2982,4.59994,2470.334,2021-6-11T03:58:21Z
2021-06-11T02:00:11Z,42.805,6.029,13.2988,4.59994,2470.297,2021-6-11T04:01:25Z
2021-06-11T02:03:15Z,42.805,6.029,13.2980,4.59994,2470.297,2021-6-11T04:04:28Z
2021-06-11T02:06:18Z,42.805,6.029,13.2985,4.59992,2470.297,2021-6-11T04:07:31Z
2021-06-11T02:09:21Z,42.805,6.029,13.2989,4.59993,2470.297,2021-6-11T04:10:34Z
2021-06-11T02:12:24Z,42.805,6.029,13.2988,4.59996,2470.297,2021-6-11T04:13:37Z
2021-06-11T02:15:27Z,42.805,6.029,13.2983,4.59992,2470.334,2021-6-11T04:16:40Z
2021-06-11T02:18:30Z,42.805,6.029,13.2986,4.59991,2470.32,2021-6-11T04:19:43Z
2021-06-11T02:21:33Z,42.805,6.029,13.2984,4.59992,2470.297,2021-6-11T04:22:46Z
2021-06-11T02:24:36Z,42.805,6.029,13.2983,4.59992,2470.334,2021-6-11T04:25:50Z
2021-06-11T02:27:40Z,42.805,6.029,13.2989,4.59993,2470.297,2021-6-11T04:28:53Z
2021-06-11T02:30:43Z,42.805,6.029,13.2984,4.59992,2470.297,2021-6-11T04:31:56Z
2021-06-11T02:33:46Z,42.805,6.029,13.2985,4.59994,2470.343,2021-6-11T04:34:59Z
2021-06-11T02:36:49Z,42.805,6.029,13.2984,4.59994,2470.32,2021-6-11T04:38:02Z
2021-06-11T02:39:52Z,42.805,6.029,13.2986,4.59996,2470.31,2021-6-11T04:41:05Z
2021-06-11T02:42:55Z,42.805,6.029,13.2985,4.59993,2470.297,2021-6-11T04:44:08Z
2021-06-11T02:45:58Z,42.805,6.029,13.2988,4.59993,2470.32,2021-6-11T04:47:11Z
2021-06-11T02:49:01Z,42.805,6.029,13.2987,4.59992,2470.32,2021-6-11T04:50:15Z
2021-06-11T02:52:04Z,42.805,6.029,13.2987,4.59991,2470.32,2021-6-11T04:53:18Z
2021-06-11T02:55:08Z,42.805,6.029,13.2983,4.59992,2470.273,2021-6-11T04:56:21Z
2021-06-11T02:58:11Z,42.805,6.029,13.2986,4.60001,2470.334,2021-6-11T04:59:24Z
2021-06-11T03:01:14Z,42.805,6.029,13.2987,4.59995,2470.32,2021-6-11T05:02:27Z
2021-06-11T03:04:17Z,42.805,6.029,13.2984,4.59996,2470.32,2021-6-11T05:05:30Z
2021-06-11T03:07:20Z,42.805,6.029,13.2983,4.59994,2470.32,2021-6-11T05:08:33Z
2021-06-11T03:10:23Z,42.805,6.029,13.2984,4.59996,2470.297,2021-6-11T05:11:36Z
2021-06-11T03:13:26Z,42.805,6.029,13.2982,4.59994,2470.297,2021-6-11T05:14:40Z
2021-06-11T03:16:29Z,42.805,6.029,13.2987,4.59994,2470.297,2021-6-11T05:17:43Z
2021-06-11T03:19:33Z,42.805,6.029,13.2985,4.59991,2470.32,2021-6-11T05:20:46Z
2021-06-11T03:22:36Z,42.805,6.029,13.2982,4.59995,2470.297,2021-6-11T05:23:49Z
2021-06-11T03:25:39Z,42.805,6.029,13.2984,4.59993,2470.297,2021-6-11T05:26:52Z
2021-06-11T03:28:42Z,42.805,6.029,13.2985,4.59994,2470.32,2021-6-11T05:29:55Z
2021-06-11T03:31:45Z,42.805,6.029,13.2988,4.59995,2470.334,2021-6-11T05:32:58Z
2021-06-11T03:34:48Z,42.805,6.029,13.2985,4.59994,2470.357,2021-6-11T05:36:01Z
2021-06-11T03:37:51Z,42.805,6.029,13.2986,4.59992,2470.32,2021-6-11T05:39:05Z
2021-06-11T03:40:54Z,42.805,6.029,13.2985,4.59999,2470.334,2021-6-11T05:42:08Z
2021-06-11T03:43:58Z,42.805,6.029,13.2986,4.59992,2470.343,2021-6-11T05:45:11Z
2021-06-11T03:47:01Z,42.805,6.029,13.2989,4.60001,2470.31,2021-6-11T05:48:14Z
2021-06-11T03:50:04Z,42.805,6.029,13.2985,4.60003,2470.334,2021-6-11T05:51:17Z
2021-06-11T03:53:07Z,42.805,6.029,13.2987,4.59994,2470.366,2021-6-11T05:54:20Z
2021-06-11T03:56:10Z,42.805,6.029,13.2983,4.59995,2470.32,2021-6-11T05:57:23Z
2021-06-11T03:59:13Z,42.805,6.029,13.2983,4.59994,2470.343,2021-6-11T06:00:26Z
2021-06-11T04:02:16Z,42.805,6.029,13.2983,4.59996,2470.32,2021-6-11T06:03:30Z
2021-06-11T04:05:19Z,42.805,6.029,13.2984,4.59991,2470.357,2021-6-11T06:06:33Z
2021-06-11T04:08:23Z,42.805,6.029,13.2986,4.59994,2470.32,2021-6-11T06:09:36Z
2021-06-11T04:11:26Z,42.805,6.029,13.2986,4.59993,2470.343,2021-6-11T06:12:39Z
2021-06-11T04:14:29Z,42.805,6.029,13.2985,4.59992,2470.366,2021-6-11T06:15:42Z
2021-06-11T04:17:32Z,42.805,6.029,13.2984,4.60001,2470.366,2021-6-11T06:18:45Z
2021-06-11T04:20:35Z,42.805,6.029,13.2986,4.59992,2470.366,2021-6-11T06:21:48Z
2021-06-11T04:23:38Z,42.805,6.029,13.2987,4.59994,2470.32,2021-6-11T06:24:51Z
2021-06-11T04:26:41Z,42.805,6.029,13.2983,4.59991,2470.343,2021-6-11T06:27:54Z
2021-06-11T04:29:44Z,42.805,6.029,13.2989,4.59993,2470.343,2021-6-11T06:30:58Z
2021-06-11T04:32:48Z,42.805,6.029,13.2981,4.59995,2470.343,2021-6-11T06:34:01Z
2021-06-11T04:35:51Z,42.805,6.029,13.2983,4.59993,2470.366,2021-6-11T06:37:04Z
2021-06-11T04:38:54Z,42.805,6.029,13.2986,4.59998,2470.38,2021-6-11T06:40:07Z
2021-06-11T04:41:57Z,42.805,6.029,13.2981,4.59995,2470.357,2021-6-11T06:43:10Z
2021-06-11T04:45:00Z,42.805,6.029,13.2986,4.59996,2470.357,2021-6-11T06:46:13Z
2021-06-11T04:48:03Z,42.805,6.029,13.2989,4.59999,2470.38,2021-6-11T06:49:16Z
2021-06-11T04:51:06Z,42.805,6.029,13.2986,4.59998,2470.366,2021-6-11T06:52:20Z
2021-06-11T04:54:09Z,42.805,6.029,13.2982,4.59994,2470.38,2021-6-11T06:55:23Z
2021-06-11T04:57:13Z,42.805,6.029,13.2982,4.59995,2470.366,2021-6-11T06:58:26Z
2021-06-11T05:00:16Z,42.805,6.029,13.2985,4.59992,2470.38,2021-6-11T07:01:29Z
2021-06-11T05:03:19Z,42.805,6.029,13.2982,4.59996,2470.38,2021-6-11T07:04:32Z
2021-06-11T05:06:22Z,42.805,6.029,13.2987,4.59994,2470.413,2021-6-11T07:07:35Z
2021-06-11T05:09:25Z,42.805,6.029,13.2986,4.59999,2470.404,2021-6-11T07:10:38Z
2021-06-11T05:12:28Z,42.805,6.029,13.2982,4.59997,2470.404,2021-6-11T07:13:41Z
2021-06-11T05:15:31Z,42.805,6.029,13.2986,4.59993,2470.39,2021-6-11T07:16:44Z
2021-06-11T05:18:34Z,42.805,6.029,13.2984,4.59995,2470.404,2021-6-11T07:19:48Z
2021-06-11T05:21:38Z,42.805,6.029,13.2986,4.59996,2470.427,2021-6-11T07:22:51Z
2021-06-11T05:24:41Z,42.805,6.029,13.2986,4.59994,2470.39,2021-6-11T07:25:54Z
2021-06-11T05:27:44Z,42.805,6.029,13.2986,4.59999,2470.399,2021-6-11T07:28:57Z
2021-06-11T05:30:47Z,42.805,6.029,13.2982,4.59993,2470.413,2021-6-11T07:32:00Z
2021-06-11T05:33:50Z,42.805,6.029,13.2986,4.59994,2470.413,2021-6-11T07:35:03Z
2021-06-11T05:36:53Z,42.805,6.029,13.2983,4.59991,2470.413,2021-6-11T07:38:06Z
2021-06-11T05:39:56Z,42.805,6.029,13.2986,4.59992,2470.413,2021-6-11T07:41:09Z
2021-06-11T05:42:59Z,42.805,6.029,13.2987,4.59996,2470.413,2021-6-11T07:44:13Z
2021-06-11T05:46:03Z,42.805,6.029,13.2985,4.60000,2470.45,2021-6-11T07:47:16Z
2021-06-11T05:49:06Z,42.805,6.029,13.2983,4.59996,2470.413,2021-6-11T07:50:19Z
2021-06-11T05:52:09Z,42.805,6.029,13.2987,4.59993,2470.427,2021-6-11T07:53:22Z
2021-06-11T05:55:12Z,42.805,6.029,13.2989,4.59997,2470.45,2021-6-11T07:56:25Z
2021-06-11T05:58:15Z,42.805,6.029,13.2982,4.59993,2470.45,2021-6-11T07:59:28Z
2021-06-11T06:01:18Z,42.805,6.029,13.2986,4.60004,2470.46,2021-6-11T08:02:31Z
2021-06-11T06:04:21Z,42.805,6.029,13.2989,4.59994,2470.437,2021-6-11T08:05:34Z
2021-06-11T06:07:24Z,42.805,6.029,13.2984,4.60007,2470.437,2021-6-11T08:08:38Z
2021-06-11T06:10:28Z,42.805,6.029,13.2985,4.59996,2470.437,2021-6-11T08:11:41Z
2021-06-11T06:13:31Z,42.805,6.029,13.2989,4.59996,2470.413,2021-6-11T08:14:44Z
2021-06-11T06:16:34Z,42.805,6.029,13.2986,4.59999,2470.437,2021-6-11T08:17:47Z
2021-06-11T06:19:37Z,42.805,6.029,13.2984,4.59999,2470.45,2021-6-11T08:20:50Z
2021-06-11T06:22:40Z,42.805,6.029,13.2986,4.59998,2470.413,2021-6-11T08:23:53Z
2021-06-11T06:25:43Z,42.805,6.029,13.2986,4.59998,2470.427,2021-6-11T08:26:56Z
2021-06-11T06:28:46Z,42.805,6.029,13.2985,4.60001,2470.413,2021-6-11T08:29:59Z
2021-06-11T06:31:49Z,42.805,6.029,13.2984,4.59996,2470.437,2021-6-11T08:33:03Z
2021-06-11T06:34:52Z,42.805,6.029,13.2986,4.59993,2470.45,2021-6-11T08:36:06Z
2021-06-11T06:37:56Z,42.805,6.029,13.2984,4.59994,2470.413,2021-6-11T08:39:09Z
2021-06-11T06:40:59Z,42.805,6.029,13.2989,4.59996,2470.437,2021-6-11T08:42:12Z
2021-06-11T06:44:02Z,42.805,6.029,13.2986,4.59999,2470.45,2021-6-11T08:45:15Z
2021-06-11T06:47:05Z,42.805,6.029,13.2984,4.59996,2470.437,2021-6-11T08:48:18Z
2021-06-11T06:50:08Z,42.805,6.029,13.2987,4.60003,2470.413,2021-6-11T08:51:21Z
2021-06-11T06:53:11Z,42.805,6.029,13.2983,4.59999,2470.46,2021-6-11T08:54:24Z
2021-06-11T06:56:14Z,42.805,6.029,13.2986,4.59995,2470.474,2021-6-11T08:57:28Z
2021-06-11T06:59:17Z,42.805,6.029,13.2985,4.59999,2470.45,2021-6-11T09:00:31Z
2021-06-11T07:02:21Z,42.805,6.029,13.2983,4.59999,2470.45,2021-6-11T09:03:34Z
2021-06-11T07:05:24Z,42.805,6.029,13.2987,4.59996,2470.474,2021-6-11T09:06:37Z
2021-06-11T07:08:27Z,42.805,6.029,13.2983,4.59994,2470.413,2021-6-11T09:09:40Z
2021-06-11T07:11:30Z,42.805,6.029,13.2983,4.59996,2470.474,2021-6-11T09:12:43Z
2021-06-11T07:14:33Z,42.805,6.029,13.2984,4.60000,2470.437,2021-6-11T09:15:46Z
2021-06-11T07:17:36Z,42.805,6.029,13.2981,4.59999,2470.45,2021-6-11T09:18:49Z
2021-06-11T07:20:39Z,42.805,6.029,13.2986,4.60001,2470.45,2021-6-11T09:21:53Z
2021-06-11T07:23:42Z,42.805,6.029,13.2985,4.59996,2470.437,2021-6-11T09:24:56Z
2021-06-11T07:26:46Z,42.805,6.029,13.2985,4.59996,2470.413,2021-6-11T09:27:59Z
2021-06-11T07:29:49Z,42.805,6.029,13.2983,4.59994,2470.413,2021-6-11T09:31:02Z
2021-06-11T07:32:52Z,42.805,6.029,13.2986,4.59998,2470.46,2021-6-11T09:34:05Z
2021-06-11T07:35:55Z,42.805,6.029,13.2982,4.60002,2470.437,2021-6-11T09:37:08Z
2021-06-11T07:38:58Z,42.805,6.029,13.2984,4.59997,2470.427,2021-6-11T09:40:11Z
2021-06-11T07:42:01Z,42.805,6.029,13.2983,4.59996,2470.46,2021-6-11T09:43:14Z
2021-06-11T07:45:04Z,42.805,6.029,13.2985,4.60003,2470.45,2021-6-11T09:46:18Z
2021-06-11T07:48:07Z,42.805,6.029,13.2984,4.59993,2470.474,2021-6-11T09:49:21Z
2021-06-11T07:51:11Z,42.805,6.029,13.2986,4.59996,2470.427,2021-6-11T09:52:24Z
2021-06-11T07:54:14Z,42.805,6.029,13.2981,4.60003,2470.437,2021-6-11T09:55:27Z
2021-06-11T07:57:17Z,42.805,6.029,13.2982,4.59998,2470.46,2021-6-11T09:58:30Z
2021-06-11T08:00:20Z,42.805,6.029,13.2986,4.59993,2470.45,2021-6-11T10:01:33Z
2021-06-11T08:03:23Z,42.805,6.029,13.2985,4.59999,2470.474,2021-6-11T10:04:36Z
2021-06-11T08:06:26Z,42.805,6.029,13.2980,4.60002,2470.413,2021-6-11T10:07:39Z
2021-06-11T08:09:29Z,42.805,6.029,13.2986,4.59996,2470.45,2021-6-11T10:10:42Z
2021-06-11T08:12:32Z,42.805,6.029,13.2984,4.60003,2470.46,2021-6-11T10:13:46Z
2021-06-11T08:15:36Z,42.805,6.029,13.2979,4.59996,2470.45,2021-6-11T10:16:49Z
2021-06-11T08:18:39Z,42.805,6.029,13.2983,4.59994,2470.45,2021-6-11T10:19:52Z
2021-06-11T08:21:42Z,42.805,6.029,13.2982,4.60000,2470.437,2021-6-11T10:22:55Z
2021-06-11T08:24:45Z,42.805,6.029,13.2985,4.60000,2470.413,2021-6-11T10:25:58Z
2021-06-11T08:27:48Z,42.805,6.029,13.2985,4.60003,2470.413,2021-6-11T10:29:01Z
2021-06-11T08:30:51Z,42.805,6.029,13.2985,4.60003,2470.413,2021-6-11T10:32:04Z
2021-06-11T08:33:54Z,42.805,6.029,13.2983,4.60002,2470.437,2021-6-11T10:35:08Z
2021-06-11T08:36:57Z,42.805,6.029,13.2983,4.60000,2470.413,2021-6-11T10:38:11Z
2021-06-11T08:40:01Z,42.805,6.029,13.2984,4.60002,2470.39,2021-6-11T10:41:14Z
2021-06-11T08:43:04Z,42.805,6.029,13.2988,4.60003,2470.427,2021-6-11T10:44:17Z
2021-06-11T08:46:07Z,42.805,6.029,13.2985,4.60001,2470.413,2021-6-11T10:47:20Z
2021-06-11T08:49:10Z,42.805,6.029,13.2984,4.60003,2470.413,2021-6-11T10:50:23Z
2021-06-11T08:52:13Z,42.805,6.029,13.2986,4.59999,2470.413,2021-6-11T10:53:26Z
2021-06-11T08:55:16Z,42.805,6.029,13.2982,4.59999,2470.437,2021-6-11T10:56:29Z
2021-06-11T08:58:19Z,42.805,6.029,13.2986,4.59999,2470.427,2021-6-11T10:59:33Z
2021-06-11T09:01:22Z,42.805,6.029,13.2986,4.59997,2470.437,2021-6-11T11:02:36Z
2021-06-11T09:04:26Z,42.805,6.029,13.2985,4.60000,2470.437,2021-6-11T11:05:39Z
2021-06-11T09:07:29Z,42.805,6.029,13.2983,4.59996,2470.413,2021-6-11T11:08:42Z
2021-06-11T09:10:32Z,42.805,6.029,13.2983,4.60001,2470.413,2021-6-11T11:11:45Z
2021-06-11T09:13:35Z,42.805,6.029,13.2982,4.59999,2470.427,2021-6-11T11:14:48Z
2021-06-11T09:16:38Z,42.805,6.029,13.2985,4.60001,2470.413,2021-6-11T11:17:51Z
2021-06-11T09:19:41Z,42.805,6.029,13.2984,4.59999,2470.39,2021-6-11T11:20:54Z
2021-06-11T09:22:44Z,42.805,6.029,13.2988,4.59999,2470.366,2021-6-11T11:23:58Z
2021-06-11T09:25:48Z,42.805,6.029,13.2989,4.59999,2470.399,2021-6-11T11:27:01Z
2021-06-11T09:28:51Z,42.805,6.029,13.2984,4.59999,2470.427,2021-6-11T11:30:04Z
2021-06-11T09:31:54Z,42.805,6.029,13.2983,4.59999,2470.413,2021-6-11T11:33:07Z
2021-06-11T09:34:57Z,42.805,6.029,13.2982,4.59999,2470.404,2021-6-11T11:36:10Z
2021-06-11T09:38:00Z,42.805,6.029,13.2987,4.59998,2470.404,2021-6-11T11:39:13Z
2021-06-11T09:41:03Z,42.805,6.029,13.2982,4.59999,2470.404,2021-6-11T11:42:16Z
2021-06-11T09:44:06Z,42.805,6.029,13.2986,4.59999,2470.39,2021-6-11T11:45:19Z
2021-06-11T09:47:09Z,42.805,6.029,13.2983,4.60002,2470.39,2021-6-11T11:48:23Z
2021-06-11T09:50:13Z,42.805,6.029,13.2988,4.59999,2470.39,2021-6-11T11:51:26Z
2021-06-11T09:53:16Z,42.805,6.029,13.2982,4.59996,2470.404,2021-6-11T11:54:29Z
2021-06-11T09:56:19Z,42.805,6.029,13.2986,4.59995,2470.366,2021-6-11T11:57:32Z
2021-06-11T09:59:22Z,42.805,6.029,13.2990,4.60001,2470.366,2021-6-11T12:00:35Z
2021-06-11T10:02:25Z,42.805,6.029,13.2986,4.59998,2470.38,2021-6-11T12:03:38Z
2021-06-11T10:05:28Z,42.805,6.029,13.2988,4.60002,2470.366,2021-6-11T12:06:41Z
2021-06-11T10:08:31Z,42.805,6.029,13.2990,4.59997,2470.366,2021-6-11T12:09:45Z
2021-06-11T10:11:34Z,42.805,6.029,13.2987,4.60002,2470.39,2021-6-11T12:12:48Z
2021-06-11T10:14:38Z,42.805,6.029,13.2982,4.59997,2470.404,2021-6-11T12:15:51Z
2021-06-11T10:17:41Z,42.805,6.029,13.2986,4.59996,2470.353,2021-6-11T12:18:54Z
2021-06-11T10:20:44Z,42.805,6.029,13.2983,4.59998,2470.366,2021-6-11T12:21:57Z
2021-06-11T10:23:47Z,42.805,6.029,13.2984,4.59996,2470.38,2021-6-11T12:25:00Z
2021-06-11T10:26:50Z,42.805,6.029,13.2989,4.59999,2470.39,2021-6-11T12:28:03Z
2021-06-11T10:29:53Z,42.805,6.029,13.2989,4.59999,2470.38,2021-6-11T12:31:06Z
2021-06-11T10:32:56Z,42.805,6.029,13.2986,4.59999,2470.366,2021-6-11T12:34:10Z
2021-06-11T10:35:59Z,42.805,6.029,13.2990,4.59997,2470.357,2021-6-11T12:37:13Z
2021-06-11T10:39:03Z,42.805,6.029,13.2990,4.59997,2470.38,2021-6-11T12:40:16Z
2021-06-11T10:42:06Z,42.805,6.029,13.2986,4.60000,2470.366,2021-6-11T12:43:19Z
2021-06-11T10:45:09Z,42.805,6.029,13.2986,4.59996,2470.38,2021-6-11T12:46:22Z
2021-06-11T10:48:12Z,42.805,6.029,13.2986,4.59997,2470.366,2021-6-11T12:49:25Z
2021-06-11T10:51:15Z,42.805,6.029,13.2983,4.59998,2470.353,2021-6-11T12:52:28Z
2021-06-11T10:54:18Z,42.805,6.029,13.2989,4.59999,2470.343,2021-6-11T12:55:31Z
2021-06-11T10:57:21Z,42.805,6.029,13.2984,4.59995,2470.334,2021-6-11T12:58:35Z
2021-06-11T11:00:24Z,42.805,6.029,13.2986,4.59996,2470.366,2021-6-11T13:01:38Z
2021-06-11T11:03:28Z,42.805,6.029,13.2986,4.59994,2470.334,2021-6-11T13:04:41Z
2021-06-11T11:06:31Z,42.805,6.029,13.2983,4.59996,2470.297,2021-6-11T13:07:44Z
2021-06-11T11:09:34Z,42.805,6.029,13.2985,4.59996,2470.357,2021-6-11T13:10:47Z
2021-06-11T11:12:37Z,42.805,6.029,13.2986,4.59999,2470.343,2021-6-11T13:13:50Z
2021-06-11T11:15:40Z,42.805,6.029,13.2986,4.59997,2470.32,2021-6-11T13:16:53Z
2021-06-11T11:18:43Z,42.805,6.029,13.2986,4.60000,2470.32,2021-6-11T13:19:56Z
2021-06-11T11:21:46Z,42.805,6.029,13.2986,4.59998,2470.357,2021-6-11T13:23:00Z
2021-06-11T11:24:49Z,42.805,6.029,13.2986,4.59996,2470.297,2021-6-11T13:26:03Z
2021-06-11T11:27:53Z,42.805,6.029,13.2983,4.59998,2470.32,2021-6-11T13:29:06Z
2021-06-11T11:30:56Z,42.805,6.029,13.2984,4.59996,2470.32,2021-6-11T13:32:09Z
2021-06-11T11:33:59Z,42.805,6.029,13.2983,4.59999,2470.32,2021-6-11T13:35:12Z
2021-06-11T11:37:02Z,42.805,6.029,13.2983,4.59997,2470.32,2021-6-11T13:38:15Z
2021-06-11T11:40:05Z,42.805,6.029,13.2986,4.59994,2470.334,2021-6-11T13:41:18Z
2021-06-11T11:43:08Z,42.805,6.029,13.2985,4.59998,2470.343,2021-6-11T13:44:21Z
2021-06-11T11:46:11Z,42.805,6.029,13.2985,4.60001,2470.31,2021-6-11T13:47:25Z
2021-06-11T11:49:15Z,42.805,6.029,13.2986,4.59998,2470.357,2021-6-11T13:50:28Z
2021-06-11T11:52:18Z,42.805,6.029,13.2983,4.59998,2470.334,2021-6-11T13:53:31Z
2021-06-11T11:55:21Z,42.805,6.029,13.2987,4.59998,2470.32,2021-6-11T13:56:34Z
2021-06-11T11:58:24Z,42.805,6.029,13.2986,4.59998,2470.297,2021-6-11T13:59:37Z
2021-06-11T12:01:27Z,42.805,6.029,13.2983,4.59994,2470.31,2021-6-11T14:02:40Z
2021-06-11T12:04:30Z,42.805,6.029,13.2984,4.59996,2470.297,2021-6-11T14:05:43Z
2021-06-11T12:07:33Z,42.805,6.029,13.2986,4.59994,2470.32,2021-6-11T14:08:46Z
2021-06-11T12:10:36Z,42.805,6.029,13.2986,4.59996,2470.31,2021-6-11T14:11:50Z
2021-06-11T12:13:39Z,42.805,6.029,13.2982,4.59995,2470.273,2021-6-11T14:14:53Z
2021-06-11T12:16:43Z,42.805,6.029,13.2983,4.59996,2470.32,2021-6-11T14:17:56Z
2021-06-11T12:19:46Z,42.805,6.029,13.2985,4.60001,2470.297,2021-6-11T14:20:59Z
2021-06-11T12:22:49Z,42.805,6.029,13.2983,4.59996,2470.297,2021-6-11T14:24:02Z
2021-06-11T12:25:52Z,42.805,6.029,13.2983,4.59996,2470.31,2021-6-11T14:27:05Z
2021-06-11T12:28:55Z,42.805,6.029,13.2984,4.59995,2470.32,2021-6-11T14:30:08Z
2021-06-11T12:31:58Z,42.805,6.029,13.2988,4.59998,2470.264,2021-6-11T14:33:11Z
2021-06-11T12:35:01Z,42.805,6.029,13.2985,4.59995,2470.297,2021-6-11T14:36:15Z
2021-06-11T12:38:04Z,42.805,6.029,13.2983,4.59994,2470.273,2021-6-11T14:39:18Z
2021-06-11T12:41:08Z,42.805,6.029,13.2983,4.59994,2470.297,2021-6-11T14:42:21Z
2021-06-11T12:44:11Z,42.805,6.029,13.2983,4.59993,2470.287,2021-6-11T14:45:24Z
2021-06-11T12:47:14Z,42.805,6.029,13.2983,4.59998,2470.287,2021-6-11T14:48:27Z
2021-06-11T12:50:17Z,42.805,6.029,13.2986,4.59994,2470.31,2021-6-11T14:51:30Z
2021-06-11T12:53:20Z,42.805,6.029,13.2986,4.59994,2470.287,2021-6-11T14:54:33Z
2021-06-11T12:56:23Z,42.805,6.029,13.2983,4.59994,2470.297,2021-6-11T14:57:37Z
2021-06-11T12:59:26Z,42.805,6.029,13.2983,4.59995,2470.31,2021-6-11T15:00:40Z
2021-06-11T13:02:30Z,42.805,6.029,13.2984,4.59997,2470.273,2021-6-11T15:03:43Z
2021-06-11T13:05:33Z,42.805,6.029,13.2982,4.59996,2470.31,2021-6-11T15:06:46Z
2021-06-11T13:08:36Z,42.805,6.029,13.2986,4.59994,2470.297,2021-6-11T15:09:49Z
2021-06-11T13:11:39Z,42.805,6.029,13.2982,4.59995,2470.273,2021-6-11T15:12:52Z
2021-06-11T13:14:42Z,42.805,6.029,13.2985,4.59996,2470.273,2021-6-11T15:15:55Z
2021-06-11T13:17:45Z,42.805,6.029,13.2984,4.59994,2470.273,2021-6-11T15:18:58Z
2021-06-11T13:20:48Z,42.805,6.029,13.2986,4.59994,2470.297,2021-6-11T15:22:02Z
2021-06-11T13:23:51Z,42.805,6.029,13.2985,4.59995,2470.273,2021-6-11T15:25:05Z
2021-06-11T13:26:55Z,42.805,6.029,13.2986,4.59994,2470.334,2021-6-11T15:28:08Z
2021-06-11T13:29:58Z,42.805,6.029,13.2987,4.59997,2470.334,2021-6-11T15:31:11Z
2021-06-11T13:33:01Z,42.805,6.029,13.2988,4.59997,2470.25,2021-6-11T15:34:14Z
2021-06-11T13:36:04Z,42.805,6.029,13.2984,4.59998,2470.287,2021-6-11T15:37:17Z
2021-06-11T13:39:07Z,42.805,6.029,13.2982,4.59995,2470.297,2021-6-11T15:40:20Z
2021-06-11T13:42:10Z,42.805,6.029,13.2983,4.59997,2470.297,2021-6-11T15:43:23Z
2021-06-11T13:45:13Z,42.805,6.029,13.2990,4.59996,2470.273,2021-6-11T15:46:27Z
2021-06-11T13:48:16Z,42.805,6.029,13.2985,4.59997,2470.297,2021-6-11T15:49:30Z
2021-06-11T13:51:20Z,42.805,6.029,13.2984,4.59995,2470.31,2021-6-11T15:52:33Z
2021-06-11T13:54:23Z,42.805,6.029,13.2989,4.59992,2470.297,2021-6-11T15:55:36Z
2021-06-11T13:57:26Z,42.805,6.029,13.2989,4.59995,2470.25,2021-6-11T15:58:39Z
2021-06-11T14:00:29Z,42.805,6.029,13.2985,4.59996,2470.31,2021-6-11T16:01:42Z
2021-06-11T14:03:32Z,42.805,6.029,13.2983,4.59995,2470.236,2021-6-11T16:04:45Z
2021-06-11T14:06:35Z,42.805,6.029,13.2984,4.59994,2470.273,2021-6-11T16:07:48Z
2021-06-11T14:09:38Z,42.805,6.029,13.2989,4.59998,2470.273,2021-6-11T16:10:52Z
2021-06-11T14:12:42Z,42.805,6.029,13.2986,4.59996,2470.273,2021-6-11T16:13:55Z
2021-06-11T14:15:45Z,42.805,6.029,13.2980,4.59996,2470.273,2021-6-11T16:16:58Z
2021-06-11T14:18:48Z,42.805,6.029,13.2985,4.59996,2470.273,2021-6-11T16:20:01Z
2021-06-11T14:21:51Z,42.805,6.029,13.2988,4.59994,2470.264,2021-6-11T16:23:04Z
2021-06-11T14:24:54Z,42.805,6.029,13.2985,4.59996,2470.273,2021-6-11T16:26:07Z
2021-06-11T14:27:57Z,42.805,6.029,13.2982,4.59997,2470.287,2021-6-11T16:29:10Z
2021-06-11T14:31:00Z,42.805,6.029,13.2986,4.59996,2470.264,2021-6-11T16:32:14Z
2021-06-11T14:34:03Z,42.805,6.029,13.2983,4.59995,2470.273,2021-6-11T16:35:17Z
2021-06-11T14:37:07Z,42.805,6.029,13.2986,4.59994,2470.287,2021-6-11T16:38:20Z
2021-06-11T14:40:10Z,42.805,6.029,13.2983,4.59995,2470.273,2021-6-11T16:41:23Z
2021-06-11T14:43:13Z,42.805,6.029,13.2982,4.59996,2470.31,2021-6-11T16:44:26Z
2021-06-11T14:46:16Z,42.805,6.029,13.2985,4.59996,2470.31,2021-6-11T16:47:29Z
2021-06-11T14:49:19Z,42.805,6.029,13.2987,4.59996,2470.297,2021-6-11T16:50:32Z
2021-06-11T14:52:22Z,42.805,6.029,13.2986,4.59996,2470.273,2021-6-11T16:53:35Z
2021-06-11T14:55:25Z,42.805,6.029,13.2981,4.59994,2470.25,2021-6-11T16:56:39Z
2021-06-11T14:58:28Z,42.805,6.029,13.2982,4.59996,2470.264,2021-6-11T16:59:42Z
2021-06-11T15:01:32Z,42.805,6.029,13.2983,4.59994,2470.273,2021-6-11T17:02:45Z
2021-06-11T15:04:35Z,42.805,6.029,13.2986,4.59993,2470.287,2021-6-11T17:05:48Z
2021-06-11T15:07:38Z,42.805,6.029,13.2987,4.59992,2470.297,2021-6-11T17:08:51Z
2021-06-11T15:10:41Z,42.805,6.029,13.2986,4.59996,2470.273,2021-6-11T17:11:54Z
2021-06-11T15:13:44Z,42.805,6.029,13.2982,4.59996,2470.297,2021-6-11T17:14:57Z